User: anonymous   Login
Location: Key Biscayne
(25.6930°N, 80.1630°W)
Time: 00:15:07
(UTC-04:00)
Language:

CZ-2D R/B - Orbit

View from above orbital plane
View from above orbital plane
View from above satellite
View from above satellite

Ground track
Ground track

The orbit data is extracted from the following two-line orbital elements,

1 28738U 05024B   16121.51905479  .00001271  00000-0  81058-4 0  9997
2 28738  97.5468 159.3107 0011945 351.3278   8.7743 15.10460630593501
Epoch (UTC): 30 April 2016 12:27:26
Eccentricity: 0.0011945
inclination: 97.5468°
perigee height: 526 km
apogee height: 543 km
right ascension of ascending node: 159.3107°
argument of perigee: 351.3278°
revolutions per day: 15.10460630
mean anomaly at epoch: 8.7743°
orbit number at epoch: 59350

The dashed part of the orbit path shows where the satellite is in the earth's shadow,  

DLR